(348477) = 2005 SX124

Discovered at Anderson Mesa on 2005-08-31 by LONEOS.

Orbit

Orbit type: Main Belt

Note: WebGL enabled browser required.

epoch2024-03-31.0
epoch JD2460400.5
perihelion date2022-10-31.45738
perihelion JD2459883.95738
argument of perihelion (°)310.20841
ascending node (°)32.85453
inclination (°)7.17741
eccentricity0.1864608
perihelion distance (AU)1.8571063
Tisserand w.r.t. Jupiter3.6
ΔV w.r.t. Earth (km/sec)8.7
semimajor axis (AU)2.2827497
mean anomaly (°)147.61231
mean daily motion (°/day)0.28576990
aphelion distance (AU)2.708
period (years)3.45
P-vector [x]0.95337881
P-vector [y]-0.22471425
P-vector [z]-0.20142579
Q-vector [x]0.29406537
Q-vector [y]0.84170352
Q-vector [z]0.45283633
absolute magnitude17.09
phase slope0.15
uncertainty0
referenceMPEC 2024-E109
observations used458
oppositions12
arc length (days)7283
first opposition used2004
last opposition used2024
residual rms (arc-secs)0.74
perturbers coarse indicatorM-v
perturbers precise indicator003Ek
first observation date used2004-03-28.0
last observation date used2024-03-06.0
computer nameMPCLINUX
JD of orbit computation2456731.624423
perihelion JD uncertainty (days)1.6812E-04
argument of perihelion uncertainty (°)4.9795E-05
ascending node uncertainty (°)2.8782E-05
inclination uncertainty (°)1.1522E-05
eccentricity uncertainty 1.9517E-07
perihelion distance uncertainty (AU)4.3210E-07
Minimum Orbit Intersection Distances (in AU)
for orbit epoch: 2460400.5, reference: E2024-EA9
Mercury1.46274
Venus1.13041
Earth0.85947
Mars0.48225
Jupiter2.70518
Saturn6.55514
Uranus15.7412
Neptune27.6545

Observations

466 total observations over interval: 2004 03 28.37283 – 2024 03 06.447031
These data are available for download (format description).

Date (UT) J2000 RA J2000 Dec Magn Location Ref
2004 03 28.37283 12 59 36.24 -01 51 34.3 21.0 V 691 – Steward Observatory, Kitt Peak-Spacewatch MPS 444872
2004 03 28.41970 12 59 33.33 -01 51 22.7 20.6 V 691 – Steward Observatory, Kitt Peak-Spacewatch MPS 444872
2004 03 28.47299 12 59 30.01 -01 51 09.6 21.2 V 691 – Steward Observatory, Kitt Peak-Spacewatch MPS 444872
2005 08 31.34436 01 13 23.49 -01 05 56.8 18.8 R 699 – Lowell Observatory-LONEOS MPS 152144
2005 08 31.36622 01 13 23.10 -01 05 55.1   699 – Lowell Observatory-LONEOS MPS 152144
2005 08 31.38815 01 13 22.69 -01 05 55.1   699 – Lowell Observatory-LONEOS MPS 152144
2005 08 31.40483 01 13 22.44 -01 05 53.6 19.0 R 644 – Palomar Mountain/NEAT MPS 152144
2005 08 31.41005 01 13 22.26 -01 05 53.5   699 – Lowell Observatory-LONEOS MPS 152144
2005 08 31.42983 01 13 21.99 -01 05 52.8 19.1 R 644 – Palomar Mountain/NEAT MPS 152144
2005 08 31.45315 01 13 21.59 -01 05 51.8 19.3 R 644 – Palomar Mountain/NEAT MPS 152144
2005 09 09.36762 01 09 41.39 -01 03 32.3 18.9   705 – Apache Point MPS 235354
2005 09 09.36845 01 09 41.36 -01 03 32.3 18.8 V 705 – Apache Point MPS 235354
2005 09 14.28491 01 06 28.11 -01 04 45.8 18.4 V 703 – Catalina Sky Survey MPS 152144
2005 09 14.29300 01 06 27.79 -01 04 46.2 18.5 V 703 – Catalina Sky Survey MPS 152144
2005 09 14.30108 01 06 27.39 -01 04 46.0 18.7 V 703 – Catalina Sky Survey MPS 152144
2005 09 14.30917 01 06 26.92 -01 04 44.6 18.3 V 703 – Catalina Sky Survey MPS 152144
2005 09 14.32247 01 06 26.32 -01 04 47.0 19.6   705 – Apache Point MPS 236260
2005 09 14.32330 01 06 26.28 -01 04 47.0 18.9 V 705 – Apache Point MPS 236260
2005 09 27.93733 00 54 08.56 -01 10 46.7 17.9 V A50 – Andrushivka Astronomical Observatory MPS 163254
2005 09 27.94483 00 54 08.07 -01 10 46.8 18.5 V A50 – Andrushivka Astronomical Observatory MPS 163254
2005 09 29.31496 00 52 43.16 -01 11 07.2 18.3 R 644 – Palomar Mountain/NEAT MPS 144287
2005 09 29.33733 00 52 41.69 -01 11 07.5 18.5 R 644 – Palomar Mountain/NEAT MPS 144287
2005 09 29.35959 00 52 40.22 -01 11 07.5 18.4 R 644 – Palomar Mountain/NEAT MPS 144287
2005 09 30.25773 00 51 44.22 -01 11 18.3 18.0 R 699 – Lowell Observatory-LONEOS MPS 144287
2005 09 30.28256 00 51 42.56 -01 11 18.8   699 – Lowell Observatory-LONEOS MPS 144287
2005 09 30.33218 00 51 39.29 -01 11 19.0   699 – Lowell Observatory-LONEOS MPS 144287
2005 10 01.21258 00 50 44.05 -01 11 25.5 18.8   704 – Lincoln Laboratory ETS, New Mexico MPS 144287
2005 10 01.22311 00 50 43.36 -01 11 25.0 18.8   704 – Lincoln Laboratory ETS, New Mexico MPS 144287
2005 10 01.23365 00 50 42.63 -01 11 25.5 18.9   704 – Lincoln Laboratory ETS, New Mexico MPS 144287
2005 10 01.24416 00 50 41.93 -01 11 26.0 19.1   704 – Lincoln Laboratory ETS, New Mexico MPS 144287
2005 10 01.25471 00 50 41.22 -01 11 25.9 18.9   704 – Lincoln Laboratory ETS, New Mexico MPS 144287
2005 10 05.20409 00 46 30.88 -01 11 09.9 18.4   704 – Lincoln Laboratory ETS, New Mexico MPS 144287
2005 10 05.21487 00 46 30.17 -01 11 10.0 18.7   704 – Lincoln Laboratory ETS, New Mexico MPS 144287
2005 10 05.22565 00 46 29.47 -01 11 09.1 18.4   704 – Lincoln Laboratory ETS, New Mexico MPS 144287
2005 10 05.23640 00 46 28.70 -01 11 09.3 18.5   704 – Lincoln Laboratory ETS, New Mexico MPS 144287
2005 10 05.24716 00 46 27.99 -01 11 09.3 18.5   704 – Lincoln Laboratory ETS, New Mexico MPS 144287
2005 10 06.20629 00 45 27.53 -01 10 50.7 18.2 R 699 – Lowell Observatory-LONEOS MPS 144287
2005 10 06.22910 00 45 25.97 -01 10 51.2   699 – Lowell Observatory-LONEOS MPS 144287
2005 10 06.27477 00 45 22.96 -01 10 50.4   699 – Lowell Observatory-LONEOS MPS 144287
2005 10 06.29576 00 45 21.49 -01 10 50.9 18.0 V 703 – Catalina Sky Survey MPS 144287
2005 10 06.30125 00 45 21.13 -01 10 49.0 18.3 V 703 – Catalina Sky Survey MPS 144287
2005 10 06.30671 00 45 20.84 -01 10 49.5 18.1 V 703 – Catalina Sky Survey MPS 144287
2005 10 06.31220 00 45 20.44 -01 10 49.5 18.0 V 703 – Catalina Sky Survey MPS 144287
2005 10 07.28187 00 44 19.50 -01 10 24.4 18.3 V 703 – Catalina Sky Survey MPS 144287
2005 10 07.28889 00 44 19.06 -01 10 24.4 18.1 V 703 – Catalina Sky Survey MPS 144287
2005 10 07.29590 00 44 18.56 -01 10 24.7 18.1 V 703 – Catalina Sky Survey MPS 144287
2005 10 07.30295 00 44 18.09 -01 10 24.4 18.2 V 703 – Catalina Sky Survey MPS 144287
2005 10 20.27913 00 31 55.89 -00 52 53.9 20.2   705 – Apache Point MPS 236260
2005 10 20.27997 00 31 55.86 -00 52 53.8 19.3 V 705 – Apache Point MPS 236260
2005 10 20.37803 00 31 50.84 -00 52 40.0 18.6 R 644 – Palomar Mountain/NEAT MPS 146181
2005 10 20.39990 00 31 49.72 -00 52 37.0 18.6 R 644 – Palomar Mountain/NEAT MPS 146181
2005 10 20.42146 00 31 48.62 -00 52 34.0 18.7 R 644 – Palomar Mountain/NEAT MPS 146181
2005 10 21.21275 00 31 10.90 -00 50 41.4 18.6 R 699 – Lowell Observatory-LONEOS MPS 146181
2005 10 21.23464 00 31 09.77 -00 50 37.4   699 – Lowell Observatory-LONEOS MPS 146181
2005 10 21.25650 00 31 08.74 -00 50 33.4   699 – Lowell Observatory-LONEOS MPS 146181
2005 10 21.27839 00 31 07.61 -00 50 31.4   699 – Lowell Observatory-LONEOS MPS 146181
2005 10 22.27984 00 30 20.74 -00 47 59.8 18.8 R 699 – Lowell Observatory-LONEOS MPS 146181
2005 10 22.30161 00 30 19.66 -00 47 55.7   699 – Lowell Observatory-LONEOS MPS 146181
2005 10 22.32340 00 30 18.64 -00 47 51.2   699 – Lowell Observatory-LONEOS MPS 146181
2005 10 22.34520 00 30 17.58 -00 47 47.9   699 – Lowell Observatory-LONEOS MPS 146181
2005 10 27.10680 00 27 00.41 -00 33 29.3 19.6 V 691 – Steward Observatory, Kitt Peak-Spacewatch MPS 146181
2005 10 27.12226 00 26 59.81 -00 33 25.8 19.7 V 691 – Steward Observatory, Kitt Peak-Spacewatch MPS 146181
2005 10 27.13767 00 26 59.20 -00 33 22.7 19.7 V 691 – Steward Observatory, Kitt Peak-Spacewatch MPS 146181
2005 10 27.19819 00 26 56.73 -00 33 09.8 19.0   704 – Lincoln Laboratory ETS, New Mexico MPS 146181
2005 10 27.20732 00 26 56.45 -00 33 08.6 19.9 R 644 – Palomar Mountain/NEAT MPS 147569
2005 10 27.22170 00 26 55.77 -00 33 04.9 19.4   704 – Lincoln Laboratory ETS, New Mexico MPS 146181
2005 10 27.22869 00 26 55.60 -00 33 04.4 19.3 R 644 – Palomar Mountain/NEAT MPS 147569
2005 10 27.23355 00 26 55.38 -00 33 03.3 19.0   704 – Lincoln Laboratory ETS, New Mexico MPS 146181
2005 10 27.24524 00 26 54.96 -00 33 01.2 19.6   704 – Lincoln Laboratory ETS, New Mexico MPS 146181
2005 10 27.25024 00 26 54.73 -00 32 59.8 19.7 R 644 – Palomar Mountain/NEAT MPS 147569
2005 10 27.27010 00 26 53.87 -00 32 56.1 19.9   705 – Apache Point MPS 236260
2005 10 27.27093 00 26 53.84 -00 32 55.9 19.4 V 705 – Apache Point MPS 236260
2005 10 28.19280 00 26 20.95 -00 29 42.6 19.3   704 – Lincoln Laboratory ETS, New Mexico MPS 147569
2005 10 28.20457 00 26 20.56 -00 29 39.1 19.6   704 – Lincoln Laboratory ETS, New Mexico MPS 147569
2005 10 28.21628 00 26 20.08 -00 29 37.2 19.1   704 – Lincoln Laboratory ETS, New Mexico MPS 147569
2005 10 28.22799 00 26 19.65 -00 29 34.9 19.1   704 – Lincoln Laboratory ETS, New Mexico MPS 147569
2005 10 28.23969 00 26 19.17 -00 29 32.8 19.2   704 – Lincoln Laboratory ETS, New Mexico MPS 147569
2005 10 29.24819 00 25 45.01 -00 25 51.4 19.1 V G96 – Mt. Lemmon Survey MPS 147569
2005 10 29.25429 00 25 44.79 -00 25 49.9 19.0 V G96 – Mt. Lemmon Survey MPS 147569
2005 10 29.26039 00 25 44.58 -00 25 48.6 19.1 V G96 – Mt. Lemmon Survey MPS 147569
2005 10 29.26662 00 25 44.36 -00 25 47.2 19.0 V G96 – Mt. Lemmon Survey MPS 147569
2005 10 31.23194 00 24 43.81 -00 18 07.0 19.9   705 – Apache Point MPS 236260
2005 10 31.23277 00 24 43.79 -00 18 06.8 19.2 V 705 – Apache Point MPS 236260
2005 10 31.24753 00 24 43.38 -00 18 02.8 20.2   704 – Lincoln Laboratory ETS, New Mexico MPS 147569
2005 10 31.25943 00 24 42.99 -00 18 00.1 19.9   704 – Lincoln Laboratory ETS, New Mexico MPS 147569
2005 10 31.27137 00 24 42.63 -00 17 56.6 20.2   704 – Lincoln Laboratory ETS, New Mexico MPS 147569
2005 11 03.25361 00 23 26.29 -00 05 06.0 20.3   705 – Apache Point MPS 236260
2005 11 03.25444 00 23 26.27 -00 05 05.8 19.7 V 705 – Apache Point MPS 236260
2005 11 05.29193 00 22 44.95 +00 04 30.6 20.3   705 – Apache Point MPS 236260
2005 11 05.29277 00 22 44.94 +00 04 30.9 19.5 V 705 – Apache Point MPS 236260
2005 11 09.29773 00 21 50.16 +00 25 18.6 21.3   705 – Apache Point MPS 236260
